www.pogodaiklimat.ru

Погода и климат >> Архив погоды >> Россия >> Ингушетия >> Назрань


ПОГОДА в Назрани

АРХИВ ПОГОДЫ в Назрани

Время (UTC), дата Ветер
(напр.,м/с)
 
Видим.   Явления Облачность Т
(С)
Тd
(С)
f
(%)
Тe
(С)
Тes
(С)
Комфортность P
(гПа)
Po
(гПа)
Тmin
(С)
Tmax
(С)
R
(мм)
R24
(мм)
S
(см)
15 11.04 В 1 20 км ливневой дождь, в посл. час гроза 9/9 600 м
[Cb cap]
+13.0 +8.6 75 +13 +13 тепло 1011.4 935.1 +19.5 0.0
18 11.04 С 1 10 км {гроза} 10/0
[Ac As]
+11.0 +7.7 80 +11 +11 тепло 1012.9 936.0
21 11.04 С 1 10 км 8/0
[Ac As]
+9.1 +6.1 81 +9 +9 по сезону 1013.2 935.7
00 12.04 штиль 0 10 км ясно +6.7 +3.9 82 +6 +6 по сезону 1013.4 935.6
03 12.04 ЮЗ 1 20 км ясно +8.2 +5.5 83 +7 +8 по сезону 1015.0 937.1 +6.5 2
06 12.04 ЮЗ 1 20 км 3/0
[Ac trans]
+13.4 +7.3 67 +14 +22 тепло 1013.4 937.0
09 12.04 В 1 20 км 3/3 1020 м
[Cu hum Ci fib]
+17.6 +4.0 40 +19 +32 опасность
простуды
1011.0 935.8
12 12.04 В 2 20 км 9/9 600 м
[Cb calv Ac trans]
+17.4 +3.7 40 +18 +19 тепло 1011.2 935.9
15 12.04 В 1 20 км в посл. час ливневой дождь {гроза} [макс. диам. градин 11 мм] 8/8 600 м
[Cb calv Ac trans]
+12.2 +8.2 77 +12 +12 по сезону 1014.3 937.5 +20.2 16
18 12.04 В 1 10 км 10/0
[Ac As]
+10.6 +7.7 82 +10 +10 по сезону 1016.3 939.0
21 12.04 штиль 0 10 км 10/0
[Ac As]
+8.2 +5.5 83 +7 +7 по сезону 1017.3 939.3
00 13.04 штиль 0 10 км ясно +7.1 +4.6 84 +6 +6 по сезону 1017.7 939.1
03 13.04 штиль 0 20 км 8/0
[Ac As]
+8.0 +6.3 89 +7 +7 по сезону 1018.3 940.1 +5.5
06 13.04 В 1 20 км 3/0
[Ac trans]
+14.0 +6.1 59 +14 +23 тепло 1016.2 939.7
09 13.04 Ю 3 20 км 3/3 1020 м
[Cu hum]
+17.4 +7.5 52 +17 +27 тепло 1013.6 938.2
12 13.04 В 3 20 км 4/4 1020 м
[Cu hum Ci fib]
+17.6 +6.7 49 +18 +22 тепло 1012.8 937.5
15 13.04 В 2 20 км 4/4 300 м
[Cu hum]
+14.8 +8.5 66 +15 +15 тепло 1014.1 938.1 +19.0
18 13.04 В 3 10 км 10/0
[As op]
+11.4 +6.3 71 +10 +10 по сезону 1015.0 938.2
21 13.04 В 2 10 км 10/0
[As op]
+8.8 +4.0 72 +7 +7 по сезону 1015.8 938.8
00 14.04 штиль 0 10 км ясно +8.0 +3.6 74 +7 +7 по сезону 1015.5 937.5
03 14.04 штиль 0 20 км 9/0
[Ac As]
+9.0 +7.1 88 +8 +8 по сезону 1015.5 937.8 +7.0
06 14.04 штиль 0 10 км 6/0
[Ac trans]
+12.7 +8.7 77 +12 +20 тепло 1013.7 937.2
09 14.04 В 1 20 км 9/0
[Ac As]
+18.4 +7.4 49 +20 +27 тепло 1010.1 935.2
12 14.04 В 2 20 км 10/0
[As op]
+17.0 +8.9 59 +17 +19 тепло 1010.0 934.8
15 14.04 В 2 10 км 10/0
[As op]
+16.0 +8.1 59 +16 +16 тепло 1009.3 933.9 +19.0
18 14.04 штиль 0 10 км ясно +11.6 +4.6 62 +11 +11 по сезону 1010.3 933.6
21 14.04 штиль 0 10 км ясно +9.2 +3.2 66 +9 +9 по сезону 1011.0 934.0
00 15.04 штиль 0 10 км ясно +8.0 +3.3 72 +7 +7 по сезону 1008.5 931.3
03 15.04 штиль 0 20 км 10/0
[Ac As]
+11.2 +8.8 85 +11 +11 тепло 1006.4 930.0 +7.5
06 15.04 Ю 2 20 км ясно +12.0 +4.3 59 +11 +20 по сезону 1007.2 930.7
09 15.04 В 4 20 км 8/0
[As op]
+17.4 +11.8 70 +17 +21 тепло 1009.6 934.3
12 15.04 ЮВ 3 20 км 8/0
[As op]
+16.0 +11.2 73 +16 +18 тепло 1010.5 934.8
15 15.04 ЮВ 2 20 км 8/0
[As op]
+13.0 +7.5 69 +12 +12 по сезону 1012.8 936.1 +17.0
18 15.04 Ю 2 10 км 8/0
[As op]
+11.0 +5.8 70 +10 +10 по сезону 1013.9 936.7
21 15.04 ЮВ 2 10 км 8/0
[As op]
+9.0 +4.5 73 +7 +7 по сезону 1011.9 934.3
00 16.04 Ю 2 10 км 8/0
[As op]
+8.8 +4.5 74 +7 +7 по сезону 1012.3 934.6
03 16.04 СВ 2 20 км 8/0
[As op]
+6.0 +0.9 70 +4 +4 прохладно 1012.2 933.8 +6.0
06 16.04 Ю 2 20 км 10/0
[As op]
+7.0 +2.4 73 +5 +7 холодно 1012.8 934.6
09 16.04 Ю 2 20 км 10/0
[As op]
+8.0 +3.8 75 +6 +9 холодно 1012.6 934.7
12 16.04 Ю 2 20 км 10/0
[As op]
+7.1 +2.5 73 +5 +7 очень
холодно
1013.0 934.8
15 16.04 В 2 4000 м ливневой дождь 10/10 600 м
[Cu med, cong]
+3.0 +1.5 90 -0 -0 очень
холодно
1013.8 934.4 +8.0 1
18 16.04 ЮВ 2 4000 м слаб. ливневой дождь 10/10 600 м
[Cu med, cong]
+2.0 +0.4 89 -1 -1 очень
холодно
1015.1 935.3
21 16.04 ЮВ 2 10 км слаб. ливневой дождь 10/10 600 м
[Cu med, cong]
+3.0 +1.2 88 -0 -0 очень
холодно
1013.8 934.4
00 17.04 ЮВ 2 10 км слаб. ливневой дождь 10/10 600 м
[Cu med, cong]
+2.5 +0.1 84 -1 -1 холодно 1014.3 934.8
03 17.04 Ю 2 4000 м ливневой дождь 10/10 600 м
[Cu med, cong]
+3.0 +1.5 90 -0 -0 очень
холодно
1012.1 932.9 +3.0 22
06 17.04 Ю 2 10 км слаб. ливневой дождь 10/10 600 м
[Cu med, cong]
+4.0 +2.2 88 +1 +1 очень
холодно
1011.4 932.5
09 17.04 ЮВ 2 10 км 10/10 600 м
[Cu med, cong]
+6.7 +4.6 86 +4 +4 очень
холодно
1010.2 932.1
12 17.04 ЮВ 2 10 км слаб. ливневой дождь 10/10 600 м
[Cu med, cong]
+7.0 +4.7 85 +5 +5 очень
холодно
1010.2 932.2
15 17.04 ЮВ 2 4000 м ливневой дождь 10/10 600 м
[Cu med, cong]
+4.1 +1.6 84 +1 +1 очень
холодно
1011.3 932.4 +7.0 12
18 17.04 В 2 4000 м слаб. ливневой дождь 10/10 600 м
[Cu med, cong]
+3.0 +1.5 90 -0 -0 очень
холодно
1012.1 932.9
21 17.04 ЮВ 2 10 км ливневой дождь 10/10 600 м
[Cu med, cong]
+3.4 +1.6 88 0 0 очень
холодно
1015.6 936.2
00 18.04 ЮВ 2 10 км слаб. ливневой дождь 10/10 600 м
[Cu med, cong]
+3.0 +1.2 88 -0 -0 холодно 1015.9 936.4
03 18.04 Ю 2 1000 м слаб. снег 10/10 300 м
[Cu med, cong]
-1.0 -1.9 94 -5 -5 очень
холодно
1020.0 939.0 -1.0 20
06 18.04 СВ 2 4000 м слаб. снег 10/10 300 м
[Cu med, cong]
+0.3 -1.1 90 -3 -3 очень
холодно
1021.2 940.5
09 18.04 В 2 10 км слаб. морось 10/10 600 м
[Cu med, cong]
+1.5 -0.7 85 -2 -2 очень
холодно
1021.5 941.1
12 18.04 Ю 2 10 км слаб. морось 10/10 300 м
[Cu med, cong]
+2.0 +0.1 87 -1 -1 очень
холодно
1021.8 941.5

 

Местоположение метеостанции Назрань (Ингушетия, Россия): широта 43.15 долгота 44.85 высота над уровнем моря 665 м.

В архиве по умолчанию представлена погода в Назрани за последнюю неделю. Архивные данные за месяц целиком и за предыдущие месяцы, начиная с января 2011 года, Вы можете получить, выбрав интересующий диапазон дат из раскрывающегося списка и нажав кнопку "Ввод!".


*Определитесь, кто Вы:
робот инопланетянин человек

Внимание! Время в таблицах - всемирное. Для получения местного времени необходимо прибавить поправку, которая равна 3 ч.

Смотрите также архив погоды в соседних городах и на ближайших метеорологических станциях:

Погода в Владикавказе (Северная Осетия, Россия) (19 км)
Погода в Алагире (Северная Осетия, Россия) (50 км)
Погода в Моздоке (Северная Осетия, Россия) (66 км)
Погода в Наурской (Чечня, Россия) (67 км)
Погода в Грозном (Чечня, Россия) (71 км)
Погода в Шатое (Чечня, Россия) (74 км)
Погода на Рокском Перевале (Северная Осетия, Россия) (85 км)
Погода в Наре (Северная Осетия, Россия) (87 км)
Погода в Пасанаури (Грузия) (90 км)
Погода в Прохладный (Кабардино-Балкария, Россия) (93 км)

Пояснения к столбцам:

Ветер - указаны скорость ветра в м/с - средняя за 10 мин, порывы в срок и между сроками (в фигурных скобках) и направление, откуда дует ветер: С - северный, СВ - северо-восточный, В - восточный, ЮВ - юго-восточный, Ю - южный, ЮЗ - юго-западный, З - западный, СЗ - северо-западный.
Видимость - горизонтальная дальность видимости в метрах или километрах. При видимости от 1 до 10 км при отсутствии осадков обычно наблюдается дымка, при ухудшении видимости до 1 км и менее - туман. В сухую погоду видимость может ухудшаться дымом, пылью или мглою.
Явления - указаны атмосферные явления, наблюдавшиеся в срок или в последний час перед сроком; фигурными скобками обозначены явления, наблюдавшиеся между сроками (за 1-3 часа до срока); квадратными скобками обозначены град или гололедные отложения с указанием их диаметра в мм.
Облачность - указаны через наклонную черту общая и нижняя облачность в баллах и высота нижней границы облаков в метрах; квадратными скобками обозначены формы облаков: Ci - перистые, Cs - перисто-слоистые, Cc - перисто-кучевые, Ac - высококучевые, As - высокослоистые, Sc - слоисто-кучевые, Ns - слоисто-дождевые, Cu - кучевые, Cb - кучево-дождевые. Подробнее классификацию облаков см. в Атласе облаков (PDF).
T - Температура воздуха - температура, измеренная на высоте 2 м над землей.
Td - Температура точки росы - температура, при понижении до которой содержащийся в воздухе водяной пар достигнет насыщения.
f - Относительная влажность воздуха - влажноcть воздуха, измеренная на высоте 2 м над землей.
Te - Эффективная температура - температура, которую ощущает одетый по сезону человек в тени. Характеристика душности погоды. При расчете учитывается влияние влажности воздуха и скорости ветра на теплоощущения человека.
Tes - Эффективная температура на солнце - температура, которую ощущает человек, с поправкой на солнечный нагрев. Характеристика знойности погоды. Зависит от высоты солнца над горизонтом, облачности и скорости ветра. Ночью, в пасмурную погоду, а также при ветре 12 м/с и более поправка равна нулю.
P - Атмосферное давление - приведенное к уровню моря атмосферное давление.
Po - Атмосферное давление - измеренное на уровне метеостанции атмосферное давление.
Tmin - Минимальная температура - минимум температуры воздуха на высоте 2 м над землей.
Tmax - Максимальная температура - максимум температуры воздуха на высоте 2 м над землей.
R - Количество осадков - Количество выпавших осадков за период времени, мм. При наведении курсора мыши на число - период времени, за который выпало указанное количество осадков.
R24 - Количество осадков - Количество выпавших осадков за 24 часа, мм.
S - Снежный покров - Высота снежного покрова, см. При наведении курсора мыши на число - состояние снежного покрова и степень покрытия местности в баллах.